Location: Hylvaty SDH
(49.9612°N, 16.4057°E)
Time: 11:12:34
(UTC+01:00)

A-11 Canister half - Pass Details

Date: 08 October 2020
Orbit: 1526 x 1683 km, 47.3° (Epoch: 28 October)

Event Time Altitude Azimuth Distance (km) Brightness Sun altitude
Rises 23:50:44 0° 266° (W) 4,675 11.7 -44.7°
Reaches altitude 10° 23:53:45 10° 265° (W) 3,695 11.1 -44.8°
Enters shadow 23:54:51 15° 264° (W) 3,347 10.8 -44.9°
Maximum altitude 00:03:03 77° 182° (S) 1,580 - -45.2°
Drops below altitude 10° 00:12:33 10° 98° (E) 3,772 - -45.6°
Sets 00:15:40 0° 97° (E) 4,776 - -45.6°
